Regional Weather Roundup
Issued by NWS

Home | Current Version | Previous Version | Graphics & Text | Print | Product List | Glossary On
Versions: 1 2 3 4 5 6 7 8 9 10 11 12 13 14 15 16 17 18 19 20 21 22 23 24 25 26 27 28 29 30 31 32 33 34 35 36 37 38 39 40 41 42 43 44 45 46 47 48 49 50
000
ASUS43 KIND 181009
RWRIN

WEATHER ROUNDUP FOR INDIANA
NATIONAL WEATHER SERVICE INDIANAPOLIS IN
600 AM EDT SAT APR 18 2015

NOTE: "FAIR" INDICATES FEW OR NO CLOUDS BELOW 12,000 FEET WITH NO
SIGNIFICANT WEATHER AND/OR OBSTRUCTIONS TO VISIBILITY.

* - STATION DOES NOT REPORT WEATHER SUCH AS PRECIPITATION OR FOG.

+ - STATION NOT QUALITY CONTROLLED BY THE NATIONAL WEATHER SERVICE.
    USE DATA WITH CAUTION...ESPECIALLY DEWPOINT AND RELATIVE
    HUMIDITY OBSERVATIONS.

INZ001>003-010>013-019-020-181100-
NORTHWEST INDIANA

CITY           SKY/WX    TMP DP  RH WIND       PRES   REMARKS
GARY /AIRPORT/ PTCLDY    61  43  51 SW5       30.02F
KNOX *+        PTCLDY    48  34  57 S3        30.02S
MICHIGAN CITY+ PTCLDY    54  41  62 CALM      30.02F
MONTICELLO +   CLEAR     50  49  97 CALM      30.02S
RENSSELAER +   CLEAR     54  46  76 CALM      30.03S
VALPARAISO     PTCLDY    55  45  68 SW3       30.03S

$$

LMZ046-743>745-181100-
SOUTHERN LAKE MICHIGAN

STATION/POSITION TIME  TEMP WIND        PRES
                       AIR  DIR/SP/G
                 (UTC) (F)  (DEG/KT/KT) (MB)
BURNS HARBOR     1000   62  210/  9/ 13 1016.9S
MICHIGAN CITY    1000   63  190/  5/  6   N/A
4NW MICH CITY    1000   52                N/A

$$

INZ004-005-014>016-021>024-181100-
NORTH CENTRAL INDIANA

CITY           SKY/WX    TMP DP  RH WIND       PRES   REMARKS
GOSHEN         MOCLDY    55  45  68 CALM      30.03S
LOGANSPORT +   CLEAR     52  45  76 SW3       30.03F
PERU/GRISSOM   CLEAR     55  46  71 CALM      30.02F
ROCHESTER +    CLEAR     54  46  76 CALM      30.04S
SOUTH BEND     CLEAR     55  44  66 CALM      30.04R
WARSAW +       PTCLDY    50  45  81 CALM      30.04S

$$

INZ006>009-017-018-025>027-181100-
NORTHEAST INDIANA

CITY           SKY/WX    TMP DP  RH WIND       PRES   REMARKS
ANGOLA *+      PTCLDY    50  46  87 CALM      30.04R
AUBURN +       PTCLDY    55  43  62 CALM      30.04S
FORT WAYNE     CLEAR     54  45  71 CALM      30.04S
HUNTINGTON +   CLEAR     53  44  73 CALM      30.03F

$$

INZ028-029-035-036-043>045-051>053-181100-
WEST CENTRAL INDIANA

CITY           SKY/WX    TMP DP  RH WIND       PRES   REMARKS
CRAWFORDSVL +  CLEAR     48  43  82 CALM      30.03F
GREENCASTLE +  CLEAR     52  41  66 CALM      30.04S
LAFAYETTE      CLEAR     49  46  90 CALM      30.02F
TERRE HAUTE    CLEAR     51  48  89 NE3       30.02F

$$

INZ030>032-037>040-046>048-054>057-064-065-181100-
CENTRAL INDIANA

CITY           SKY/WX    TMP DP  RH WIND       PRES   REMARKS
CP ATTERBURY + CLEAR     45  43  93 CALM      30.04F
FISHERS *+     CLEAR     46  46 100 CALM      30.04F
FRANKFORT +    CLEAR     50  47  90 SE5       30.05F
GREENWOOD *+   CLEAR     52  43  71 E3        30.04F
INDIANAPOLIS   CLEAR     54  44  69 NE3       30.02F
-EAGLE CREEK   CLEAR     51  47  86 CALM      30.03F
KOKOMO *+      CLEAR     48  45  87 CALM      30.04S
MARION +       CLEAR     49  44  83 S3        30.04F
MT COMFORT *+  CLEAR     48 N/A N/A CALM      30.05F
SHELBYVILLE    CLEAR     51  44  77 NE5       30.04S
ZIONSVILLE +   CLEAR     50  45  82 CALM      30.04F

$$

INZ033-034-041-042-049-050-058-059-181100-
EAST CENTRAL INDIANA

CITY           SKY/WX    TMP DP  RH WIND       PRES   REMARKS
MUNCIE         CLEAR     51  44  77 CALM      30.05F

$$

INZ060-061-067>069-081>083-085>088-181100-
SOUTHWEST INDIANA

CITY           SKY/WX    TMP DP  RH WIND       PRES   REMARKS
EVANSVILLE     CLEAR     57  54  89 CALM      30.01S FOG
HUNTINGBURG *+ CLOUDY    54  48  82 CALM      30.02S VSB 1/4
WASHINGTON +   CLEAR     52  48  87 CALM      30.01S FOG

$$

INZ062-063-066-070>080-084-089>092-181100-
SOUTH CENTRAL AND SOUTHEAST INDIANA

CITY           SKY/WX    TMP DP  RH WIND       PRES   REMARKS
BEDFORD +      CLEAR     50  46  87 CALM      30.02F
BLOOMINGTON    CLEAR     49  46  90 CALM      30.02F
MADISON *+     CLEAR     52  46  82 CALM      30.05F
NORTH VERNON + CLEAR     50  50 100 CALM      30.04F

$$



USA.gov is the U.S. government's official web portal to all federal, state and local government web resources and services.